Wind_Speed
14 14 15 15 16 16 16 17 18 20 21 22 23 24 24 24 23 24 25 25 25 24 23 23 25 30 34 35 35 36 38 38 38 39 40 41 41 40 39 38 37 36 35 34 33 33 32 31 30 30 30 30 30 30 31 31 31 31 32 32 32 32 31 31 30 29 29 28 26 27 27 28 30 32 32 31 29 28 27 24 24 23 22 23 23 23 23
14 14 14 14 14 15 15 16 18 19 21 22 23 24 24 24 23 23 23 23 22 23 21 21 22 24 28 31 31 32 36 39 38 39 40 41 40 39 39 38 37 36 35 35 35 34 32 31 31 30 30 29 29 29 29 30 31 32 32 33 33 34 33 32 31 32 31 29 29 30 29 30 31 31 33 34 33 32 31 28 27 25 23 22 21 23 24
14 13 12 12 13 14 15 16 18 19 20 22 23 24 24 24 24 24 24 23 22 22 22 22 22 22 24 26 27 28 31 36 38 38 39 40 38 38 38 37 36 36 36 35 35 34 33 32 31 30 30 29 29 28 27 28 28 29 31 32 32 34 35 34 34 33 31 28 29 30 29 29 30 30 32 34 34 34 33 31 28 28 28 25 22 23 22
13 11 11 11 12 14 15 16 18 19 21 22 24 25 25 25 24 24 24 24 23 23 23 22 22 21 21 23 24 25 28 33 37 37 38 39 38 36 35 34 34 35 36 36 36 35 34 33 32 32 31 30 29 28 28 27 27 27 27 28 28 31 34 36 37 37 34 31 31 30 28 27 27 29 31 32 33 33 32 31 28 27 28 27 25 25 23
11 10 10 11 12 13 15 16 18 19 21 23 24 25 26 25 24 24 25 25 24 21 20 18 17 18 18 19 20 23 27 31 34 35 36 37 37 35 33 32 31 32 34 35 35 35 35 34 33 33 32 31 30 29 28 27 27 26 26 26 25 25 28 30 31 33 35 35 33 31 29 28 28 28 29 31 32 32 32 31 28 27 26 25 26 26 25
9 9 10 11 12 13 15 16 18 19 21 23 24 25 26 26 26 26 27 26 21 15 11 10 10 13 15 16 18 22 26 29 30 31 33 34 35 35 33 31 30 29 31 33 34 35 35 35 34 33 33 32 31 31 30 29 28 28 27 27 26 25 25 24 23 23 27 31 34 35 33 32 32 31 30 30 30 30 31 31 30 30 28 27 27 26 25
8 9 10 11 12 13 14 16 18 20 21 23 24 26 27 28 27 27 28 25 17 8 3 7 5 8 12 14 17 21 23 25 27 27 29 31 32 33 32 31 30 29 29 30 31 33 34 35 35 34 33 33 33 32 31 31 30 29 28 27 26 25 25 23 22 22 21 22 26 33 37 37 36 35 34 33 32 32 32 32 32 33 31 31 30 28 27
8 10 10 11 12 13 14 16 18 20 21 23 25 27 28 29 27 28 28 23 14 6 5 8 2 1 9 12 14 18 20 21 23 23 25 27 28 30 30 30 30 29 29 29 29 31 33 33 34 34 33 33 33 33 32 32 30 29 28 27 25 25 24 23 23 24 24 21 21 25 32 37 39 38 38 37 36 35 34 34 34 34 34 33 33 32 31
8 10 11 12 13 13 15 17 18 20 21 23 24 26 28 28 28 28 28 23 16 8 4 6 4 9 8 9 11 14 16 17 19 19 21 23 24 26 27 28 28 28 28 28 28 29 30 31 33 33 33 33 33 33 32 32 31 30 30 28 27 26 25 24 23 24 25 25 24 23 25 30 34 37 40 41 41 40 38 37 37 36 36 36 35 35 35
9 10 11 12 13 14 16 17 19 20 21 22 24 25 26 28 28 28 28 23 16 10 2 3 2 10 12 8 9 12 12 13 15 16 17 19 21 22 24 25 26 26 27 27 27 28 28 29 31 32 32 32 33 33 33 33 32 32 32 30 29 27 26 25 25 26 26 26 27 27 26 26 27 27 30 34 38 39 39 39 39 39 39 40 39 39 38
9 10 11 12 13 14 16 17 19 20 21 22 23 24 25 27 28 27 27 25 18 11 6 1 1 6 12 11 7 7 9 11 12 14 14 15 17 19 21 22 23 24 25 26 26 26 27 27 28 29 30 30 31 32 33 33 33 33 33 32 31 29 28 27 27 27 27 26 27 28 29 30 28 23 23 26 27 29 31 32 33 34 36 38 40 41 41
9 10 11 11 13 14 15 17 18 19 21 22 23 24 24 25 26 27 27 26 23 16 9 4 3 3 5 8 8 6 5 7 11 13 14 13 14 16 17 19 20 22 23 24 25 25 25 26 27 28 29 30 30 31 32 32 32 33 32 31 30 29 28 28 27 27 27 26 27 29 30 30 28 25 26 26 26 26 27 27 27 28 30 33 37 40 42
9 10 11 11 13 14 15 16 18 19 20 21 22 23 23 23 24 25 25 25 24 21 16 10 6 5 4 4 5 7 5 3 4 8 11 13 15 17 17 16 18 20 21 21 23 24 24 25 25 27 29 30 31 31 31 31 30 30 29 29 29 29 28 27 26 26 27 27 28 30 30 28 27 27 28 28 28 28 28 28 28 28 28 29 32 35 38
9 10 10 12 13 14 15 16 17 19 20 21 22 22 22 22 22 23 24 24 23 23 20 17 12 9 6 4 3 3 3 2 2 1 3 6 11 14 15 14 16 19 21 22 23 24 25 25 26 27 28 30 30 31 30 30 30 29 28 28 28 27 27 27 27 27 28 28 29 29 28 27 27 27 27 27 28 28 29 29 29 30 30 30 31 31 33
9 9 10 11 12 14 15 16 17 18 20 20 21 21 22 22 22 22 23 22 22 21 20 19 17 15 11 7 3 2 2 3 4 4 3 4 5 6 8 9 10 13 17 20 22 23 25 27 28 28 28 28 30 31 30 30 31 31 31 30 29 28 28 27 27 27 28 29 30 31 30 29 27 26 26 27 27 28 29 30 30 31 32 32 32 32 32
8 9 10 11 12 13 15 16 17 18 19 20 21 21 21 21 21 21 21 20 20 20 19 18 16 15 14 12 9 5 2 2 5 6 8 8 8 8 8 9 9 11 13 16 19 21 23 25 27 28 29 29 30 31 31 31 32 33 33 33 33 33 32 31 30 29 28 28 28 30 31 31 28 27 27 27 27 27 28 29 30 31 32 32 31 31 32
8 9 10 11 12 13 14 16 17 18 19 20 20 21 21 21 21 20 20 20 19 19 18 17 16 14 13 12 11 9 7 4 1 3 6 9 11 13 13 14 14 14 15 16 17 19 21 23 24 26 28 29 30 31 32 33 33 34 34 34 35 36 35 35 34 33 31 29 29 30 32 30 29 30 29 29 30 31 31 32 32 32 33 34 34 34 34
7 8 10 11 12 13 14 15 16 17 18 19 19 20 20 20 20 20 19 20 19 18 17 16 15 13 12 11 10 9 8 7 5 3 2 4 7 11 14 16 17 18 19 20 20 21 21 22 23 25 26 27 28 30 31 32 32 33 33 34 35 36 36 36 35 33 34 33 32 32 32 31 30 31 32 33 34 35 36 36 36 35 35 35 35 36 36
7 8 9 10 11 12 14 15 16 16 17 18 18 19 19 19 19 19 19 19 19 18 17 16 14 13 12 11 10 9 8 6 5 4 3 3 4 6 9 12 14 16 18 21 22 23 25 25 26 27 28 28 29 30 31 31 32 32 32 32 33 34 35 36 35 34 35 36 36 36 36 34 33 33 33 34 36 38 38 37 35 34 35 35 35 35 36
7 8 9 10 11 12 13 14 15 16 17 18 18 19 19 19 18 18 18 17 17 16 16 16 15 14 13 11 10 9 8 7 6 5 4 3 3 4 6 8 10 12 14 16 19 21 23 25 27 28 30 31 32 32 33 34 34 34 34 34 34 34 33 33 35 35 36 36 37 38 39 38 35 34 32 33 35 36 36 34 34 34 35 35 36 36 37
6 8 9 10 11 12 13 14 15 16 17 17 18 19 19 19 19 18 17 16 15 15 15 15 14 14 13 12 11 10 9 7 6 5 5 4 4 4 4 5 7 9 10 12 14 15 17 20 21 24 26 29 31 33 35 35 36 37 37 37 37 37 36 35 35 36 36 35 36 38 39 39 38 36 35 34 35 35 36 37 37 38 38 39 39 39 39
6 7 9 10 11 12 13 14 15 16 16 17 17 18 18 18 19 18 18 17 16 16 15 15 14 14 13 12 11 11 10 9 7 6 6 6 5 5 5 5 5 6 7 8 10 11 13 15 16 17 19 21 23 26 29 31 34 36 38 38 38 39 39 39 39 39 39 38 38 39 40 40 41 41 41 42 42 43 43 44 44 44 43 43 43 42 42
6 7 9 10 12 13 14 15 15 16 16 17 17 17 17 18 18 18 18 17 17 16 15 14 14 13 13 12 11 10 10 9 8 7 7 7 7 6 6 6 6 6 6 7 7 8 9 11 12 14 15 15 16 18 20 23 26 29 33 35 36 37 38 38 39 39 40 41 41 41 41 41 42 43 44 46 47 47 46 46 45 45 45 44 44 44 44
6 7 9 10 12 13 14 15 16 17 17 18 18 17 17 17 17 17 17 17 16 15 14 14 13 13 13 12 11 11 10 10 9 8 8 7 7 7 7 7 7 7 7 7 8 8 8 8 9 10 11 12 13 14 15 16 17 20 23 26 29 31 33 34 34 35 37 38 39 39 40 41 41 42 43 44 44 44 44 43 42 42 42 42 43 43 43
6 7 9 10 11 13 14 15 16 17 18 18 18 18 17 17 17 17 17 17 17 16 16 15 15 15 14 14 12 11 11 10 10 9 9 8 7 7 7 7 8 8 8 8 8 8 8 8 9 9 10 10 11 11 12 13 13 14 16 18 20 23 26 27 29 30 32 33 34 35 37 38 38 39 40 40 40 41 41 40 40 40 40 40 40 41 41
6 8 9 10 12 13 14 14 15 16 17 18 18 18 18 17 17 18 18 17 17 17 17 16 15 15 15 14 13 13 12 11 10 10 9 9 8 8 8 8 8 8 9 9 9 9 9 9 9 9 9 10 10 10 11 11 11 12 12 13 15 17 20 22 24 25 26 28 29 30 31 32 33 34 35 35 36 36 36 37 37 37 37 38 38 38 38
7 8 9 10 12 13 14 15 15 16 17 17 18 18 19 18 18 18 18 18 17 17 17 16 16 16 15 15 14 14 12 12 11 11 10 10 9 9 9 9 9 9 9 9 10 10 10 10 10 10 10 10 10 10 11 11 11 12 12 11 12 13 14 15 18 19 21 23 24 25 26 27 28 29 30 30 31 31 32 32 33 33 34 35 35 36 36
8 8 9 10 12 13 14 15 15 16 17 17 18 18 18 19 19 18 18 18 18 18 17 17 16 16 16 15 14 14 13 12 12 11 11 10 10 9 9 9 10 10 10 10 10 10 11 11 11 11 11 11 11 11 11 12 12 12 12 12 12 13 12 13 14 15 16 17 18 19 20 22 22 23 24 25 26 27 28 29 29 31 31 32 33 35 36
9 9 10 11 12 13 14 15 16 16 17 18 18 18 18 18 19 19 18 18 18 18 18 18 17 17 16 15 15 14 13 12 12 11 11 11 10 10 10 10 10 10 11 11 11 11 11 12 12 12 12 12 11 12 12 12 12 12 12 12 13 14 13 14 14 14 14 15 15 15 16 17 18 19 20 21 22 23 24 25 26 27 28 29 31 32 34
10 10 11 11 12 13 14 15 16 16 17 18 19 19 19 19 19 19 19 19 19 19 19 18 18 18 17 16 15 14 14 13 12 11 11 11 10 10 10 10 10 11 11 11 12 12 12 12 12 12 12 12 12 12 12 12 12 12 12 12 13 14 14 14 15 16 16 16 16 17 17 18 18 19 19 20 20 21 22 23 23 24 25 26 27 28 30
11 11 12 12 13 13 14 15 16 16 17 18 19 20 20 20 20 20 20 20 20 20 19 19 19 18 17 17 16 15 14 13 12 12 11 11 10 10 10 10 10 11 11 11 12 13 13 13 12 12 12 12 12 12 13 13 13 12 12 12 13 13 13 14 15 16 16 17 18 18 19 19 20 20 20 21 21 22 22 23 23 24 25 26 27 28 29
12 12 13 13 14 14 14 15 15 17 17 18 19 20 20 20 20 20 20 21 21 21 20 19 19 18 18 17 16 16 15 14 13 12 12 11 11 10 10 10 11 11 11 12 12 13 13 12 12 12 12 12 12 12 13 14 14 13 13 13 13 13 14 14 14 15 16 16 17 18 19 19 20 20 21 22 22 23 23 24 24 25 25 26 26 27 28
13 13 14 14 15 14 14 14 15 17 18 18 19 19 20 20 21 21 21 21 21 21 21 20 19 18 18 17 16 16 15 14 14 13 12 11 11 11 11 11 11 11 11 12 12 13 13 13 12 12 12 12 12 12 13 13 14 14 15 15 15 14 14 14 14 15 15 15 16 17 17 18 19 19 20 21 22 22 23 23 23 24 24 25 25 26 26
13 13 14 15 15 15 15 15 16 17 18 19 19 19 20 21 21 21 22 22 22 21 20 20 19 19 18 17 16 16 15 14 14 14 13 12 11 11 11 11 11 11 12 12 13 13 13 13 13 13 12 12 12 12 12 13 13 14 15 15 15 15 15 14 14 14 15 15 16 17 17 17 18 19 20 20 21 21 21 22 22 22 22 23 23 23 24
13 14 14 14 15 15 16 16 16 17 18 19 19 19 20 21 21 22 22 22 22 21 20 19 19 19 18 17 16 16 15 14 14 14 13 12 12 12 12 12 12 12 12 13 13 13 13 13 13 13 13 13 12 13 13 13 13 13 13 14 14 15 15 15 15 15 15 15 16 17 17 17 18 18 19 20 20 20 20 20 20 20 21 21 21 22 22
14 14 14 14 15 16 16 17 17 18 18 19 19 20 20 21 21 21 21 21 21 20 20 19 19 18 18 17 16 16 15 14 13 13 13 13 12 12 12 12 12 12 13 13 13 13 13 14 14 14 14 13 13 13 14 14 13 13 13 13 13 14 14 15 15 15 15 16 17 17 17 17 18 18 19 20 20 19 19 19 19 20 20 20 20 20 21
14 14 14 15 15 16 17 17 18 19 19 19 20 20 21 21 21 21 21 20 20 19 19 19 18 18 18 17 16 16 15 14 14 13 13 13 13 12 12 12 13 13 13 13 13 14 14 15 15 15 14 14 14 14 14 15 14 14 13 13 13 13 14 14 15 16 16 17 17 17 18 18 18 19 19 20 19 19 18 19 19 19 19 19 19 19 20
14 14 15 15 16 16 17 18 19 19 19 20 20 21 21 21 20 20 20 20 19 18 18 18 18 18 17 17 16 16 16 15 14 14 14 14 14 13 13 13 13 14 15 14 14 15 15 16 16 15 15 15 15 15 15 15 15 14 14 14 14 14 14 14 15 16 16 17 18 18 18 19 19 19 20 20 19 19 18 18 18 18 18 18 18 19 18
14 15 15 16 16 17 17 19 19 20 20 20 21 22 21 20 20 20 19 19 18 18 18 18 17 17 17 17 16 16 16 15 15 15 15 15 15 15 14 14 14 15 15 15 16 16 16 16 16 16 16 16 16 16 15 15 15 15 15 15 15 14 14 14 15 15 16 17 18 19 19 19 19 19 20 20 19 19 18 18 18 18 18 18 18 17 16
15 15 16 16 17 17 18 19 20 20 20 21 21 21 20 19 19 19 19 18 18 18 18 18 17 17 17 17 17 16 15 15 16 16 16 16 16 16 16 15 15 16 17 17 17 17 17 17 17 17 17 17 17 17 16 16 16 16 16 16 16 15 15 15 15 15 15 17 18 19 19 19 19 20 20 20 19 19 18 18 17 17 17 17 16 15 13
15 16 16 16 17 18 19 19 20 20 20 21 21 20 20 19 19 19 18 18 18 18 18 18 17 17 17 17 17 16 15 15 15 16 17 17 18 18 17 17 17 17 18 19 19 18 18 18 18 18 18 18 18 18 17 16 16 16 16 17 16 16 16 16 16 15 16 17 18 19 19 19 19 19 20 19 19 18 18 17 17 17 16 16 15 14 12
16 16 17 17 18 19 20 20 20 20 20 20 20 20 20 19 18 18 18 18 18 18 18 18 18 17 17 17 16 16 15 15 16 16 17 18 18 19 19 19 19 20 20 20 21 20 19 19 20 20 19 19 19 19 18 17 17 17 17 17 17 17 17 17 16 16 16 17 17 18 18 19 19 19 19 19 18 18 17 17 16 16 16 15 14 12 11
16 17 17 18 19 19 20 19 19 19 20 20 20 20 19 18 18 18 18 18 18 18 18 18 18 17 17 17 17 16 16 16 16 17 18 19 19 19 19 20 20 21 21 22 22 22 21 21 21 21 21 20 19 19 19 18 17 17 17 17 18 18 17 17 17 16 16 17 17 17 18 18 18 19 19 18 18 17 17 16 16 15 15 14 13 12 12
17 17 18 19 19 20 20 19 19 19 20 20 20 20 19 18 17 18 18 18 19 19 18 18 17 17 16 17 17 17 17 17 18 18 18 19 19 20 20 21 21 22 22 23 23 22 21 21 21 22 22 20 19 19 19 18 18 17 17 18 18 18 17 17 17 16 16 16 16 17 17 17 18 18 18 18 17 17 16 15 15 14 14 14 13 13 12
18 18 19 20 20 20 20 19 19 19 20 20 20 19 19 18 17 18 18 19 19 19 18 17 17 17 16 16 17 17 17 18 18 18 19 20 20 20 21 22 22 23 24 24 23 22 20 20 21 22 22 21 19 19 19 19 18 18 18 18 18 18 18 17 17 16 15 15 16 16 17 17 17 17 18 17 17 16 16 15 14 14 14 13 13 13 13
18 19 20 21 20 19 19 19 19 20 20 20 19 19 18 17 18 19 19 19 19 19 18 17 16 16 16 16 17 17 18 19 19 19 21 22 22 22 23 24 25 25 24 24 23 21 20 20 21 22 22 21 20 19 19 19 19 18 18 18 18 18 17 17 17 15 15 15 15 16 17 17 17 17 17 17 17 16 16 15 14 13 13 13 14 14 14
19 20 21 21 20 19 19 19 20 21 20 19 19 19 17 17 18 19 20 20 20 19 18 18 17 17 17 17 18 19 20 21 21 21 22 24 25 25 25 25 26 26 25 25 24 22 20 20 21 23 23 22 21 20 20 19 19 18 18 18 18 18 17 17 17 16 15 15 15 16 16 17 17 17 17 17 17 16 16 15 14 13 13 13 14 14 14
20 21 21 21 20 19 19 20 21 21 20 19 19 18 17 17 18 20 20 20 20 19 18 18 18 18 18 18 19 20 21 22 22 23 24 25 26 26 26 26 26 26 26 26 25 23 21 20 22 23 24 24 22 21 20 20 19 18 17 17 17 17 17 17 17 17 16 15 15 15 16 17 17 17 17 17 16 16 16 15 14 14 13 14 14 14 14
22 22 22 21 20 20 20 21 21 21 19 19 19 18 17 17 18 19 20 21 20 19 18 18 18 18 18 18 19 20 22 23 23 24 25 26 27 28 27 27 28 28 28 27 26 24 23 22 22 23 24 24 23 23 22 21 19 18 18 17 17 17 17 17 18 17 16 16 15 15 16 17 17 17 16 16 16 16 16 16 15 15 14 14 14 14 14
23 23 22 22 21 20 21 21 22 21 19 19 19 18 17 17 17 18 19 19 18 18 17 17 17 18 18 18 19 21 22 23 24 25 27 28 29 29 29 29 29 30 30 30 28 27 26 24 23 23 23 24 23 23 23 22 20 19 18 18 17 17 17 17 18 18 17 16 16 16 16 16 16 16 16 16 16 17 17 17 17 16 16 16 15 15 14
23 23 22 22 22 22 22 22 22 21 20 19 19 19 18 18 18 18 18 18 17 17 17 17 17 18 18 19 21 22 24 25 26 27 29 30 31 31 31 31 31 31 32 31 30 29 28 26 24 23 23 23 24 23 23 22 21 20 19 18 18 18 17 17 17 18 18 17 16 16 16 16 15 15 15 16 16 17 18 18 18 17 17 17 17 16 16
22 22 23 23 23 22 22 22 21 21 20 20 20 20 20 20 20 20 19 18 18 18 18 18 19 19 20 21 23 25 26 27 29 30 32 33 34 34 34 33 33 33 33 32 31 30 29 27 24 23 23 23 23 23 23 21 20 19 18 18 18 18 18 18 18 18 18 18 17 16 15 15 15 16 16 16 16 17 18 19 19 19 19 19 19 18 18
Wind_Direction
312 312 311 310 310 312 315 316 315 316 318 319 319 320 319 317 314 310 307 300 291 284 279 274 265 255 248 244 241 237 231 227 226 225 225 225 224 222 220 220 219 220 220 222 224 225 224 225 226 228 231 232 233 235 234 232 230 229 231 231 232 232 230 230 232 232 233 236 237 237 238 236 231 230 230 230 232 235 236 236 239 242 240 239 239 241 242
316 316 315 315 316 319 322 323 322 324 325 325 326 327 327 325 322 319 314 305 291 281 277 276 272 261 252 245 241 236 230 225 223 223 223 224 224 223 221 220 219 219 220 222 223 225 226 226 227 229 231 233 235 237 238 236 234 233 232 232 233 232 231 231 232 234 236 238 239 240 240 237 236 235 234 233 234 237 239 239 240 241 239 237 238 241 242
319 319 321 324 325 327 329 331 331 331 331 332 333 335 335 333 330 325 320 312 297 282 274 272 270 263 253 246 241 236 229 223 221 221 221 222 223 223 222 220 219 219 220 221 224 225 226 227 229 230 231 233 235 237 238 238 238 238 236 235 235 234 234 232 230 230 231 234 238 240 242 241 241 240 237 235 237 238 239 241 241 242 241 238 236 239 240
322 325 330 333 335 336 338 339 338 338 339 339 340 342 342 338 334 329 324 318 306 290 278 270 264 256 248 244 239 234 227 221 219 219 219 220 221 222 221 220 219 218 219 221 223 225 227 228 229 231 231 233 235 237 238 239 240 241 241 241 239 238 236 235 233 231 228 230 235 239 241 242 243 243 240 238 238 237 238 240 240 242 242 239 235 237 240
327 334 341 344 345 346 346 345 344 345 345 346 347 347 346 343 340 336 331 324 314 299 283 268 253 243 241 240 235 229 223 219 217 217 218 219 220 220 220 219 219 218 219 221 223 225 228 229 230 232 233 234 236 239 240 241 242 244 245 245 243 241 239 236 235 235 233 234 236 237 236 237 238 240 240 240 239 238 238 239 237 237 238 238 235 235 238
335 343 350 354 354 353 352 350 350 351 352 352 351 350 350 350 348 344 339 333 325 310 282 247 230 236 237 231 226 220 216 215 215 216 217 219 219 219 219 219 218 219 220 221 223 225 228 230 231 233 235 235 237 239 241 242 243 244 245 245 244 243 243 240 238 238 239 240 240 237 235 235 237 237 237 238 239 239 238 239 238 237 236 237 237 235 236
343 352 359 1 -0 358 356 356 356 357 357 356 354 354 356 357 354 351 348 344 341 333 233 189 209 247 231 216 214 212 208 209 211 213 216 218 219 220 220 220 220 221 222 222 223 224 227 230 233 234 236 237 239 240 242 243 244 246 246 247 247 247 246 246 244 243 245 245 244 241 237 235 236 236 235 235 236 237 238 238 239 240 239 239 240 239 238
353 358 4 6 4 1 -0 0 1 1 0 359 358 359 1 1 359 358 356 355 3 24 167 170 108 134 193 196 202 204 203 205 207 210 214 217 219 220 221 222 222 223 225 225 225 226 227 229 232 235 237 238 240 242 244 244 246 249 250 251 251 251 251 250 249 249 250 250 251 249 244 239 237 237 236 235 235 236 237 238 240 242 243 243 243 243 241
0 2 6 7 6 5 4 4 5 5 4 3 3 4 4 4 5 6 6 7 16 34 168 190 66 73 133 179 194 195 200 204 205 209 214 216 218 219 221 222 223 224 226 227 227 227 228 229 231 234 236 238 241 243 245 247 248 250 251 253 254 254 254 254 254 253 253 253 254 254 250 245 241 239 239 240 239 237 237 238 239 240 243 244 245 245 244
5 6 7 7 7 7 8 8 9 8 7 7 7 7 7 8 10 13 17 19 23 32 64 202 63 64 82 121 172 189 197 203 205 209 213 217 218 217 218 221 222 223 225 227 228 228 229 230 231 234 237 239 241 243 245 248 250 251 252 254 255 256 256 256 257 256 254 253 255 255 255 253 248 244 244 245 244 243 242 241 241 241 241 242 244 245 245
11 10 7 7 8 10 11 12 12 12 11 11 11 11 11 12 14 18 22 28 34 39 37 12 11 60 71 85 120 169 188 196 201 204 207 214 219 219 220 221 222 223 224 226 228 230 230 231 232 233 235 238 241 244 246 248 250 252 254 255 257 258 259 258 258 259 257 255 255 255 254 253 253 252 250 248 246 246 247 245 244 243 243 244 244 244 245
14 11 8 9 12 14 15 15 15 14 14 14 15 15 15 15 17 21 24 29 37 44 41 20 341 1 50 69 78 95 144 184 197 203 206 210 214 218 222 225 224 224 226 228 230 231 232 232 233 233 233 234 238 241 244 246 249 251 254 256 257 258 258 258 258 258 258 256 253 252 251 251 254 255 253 252 252 251 250 248 244 242 243 246 245 244 243
15 12 12 14 16 17 18 17 16 16 16 16 17 18 18 17 19 23 27 29 33 40 44 42 21 352 348 13 51 63 68 105 165 196 210 216 218 217 218 222 223 222 223 227 231 233 233 233 234 234 232 233 234 237 240 243 247 249 251 253 254 254 254 254 254 254 255 255 253 252 251 252 255 257 255 254 254 252 251 250 246 242 241 243 243 242 242
18 16 17 19 19 18 18 16 15 15 16 17 19 20 20 21 21 24 29 31 32 35 40 43 40 33 16 349 343 7 17 34 62 116 209 224 226 219 215 219 225 224 222 221 224 228 230 231 233 233 233 233 234 237 240 242 244 247 247 246 246 248 250 251 251 251 253 255 255 254 254 252 251 254 256 254 252 250 248 248 247 245 244 243 244 243 243
22 21 21 22 20 18 17 14 13 13 14 16 19 20 21 22 23 25 29 31 32 35 37 38 39 40 38 32 15 317 278 260 268 283 278 268 257 234 224 226 231 233 230 227 227 229 230 231 233 234 235 236 236 238 239 241 243 244 245 244 243 245 249 253 254 252 252 255 256 256 256 253 250 250 253 252 251 250 248 248 247 247 247 247 247 248 248
25 22 21 21 19 17 15 13 12 13 14 15 18 20 21 22 23 25 28 29 32 35 36 37 38 38 38 39 41 39 28 240 245 253 254 255 257 254 250 247 243 241 239 236 236 236 236 236 237 239 241 241 241 242 242 243 244 244 246 248 248 249 251 253 254 254 253 255 256 255 256 255 252 251 250 249 249 249 249 249 248 247 248 249 250 251 252
22 17 16 16 14 13 11 11 11 12 13 15 16 18 21 23 22 24 25 27 30 32 33 35 37 38 37 36 37 38 37 37 337 255 247 246 247 246 245 245 242 241 239 238 238 239 240 240 240 242 244 245 247 249 249 249 249 249 250 252 253 253 254 253 254 255 255 254 254 253 253 254 254 253 252 251 251 252 253 253 252 252 253 253 253 254 254
13 10 9 8 8 8 8 8 9 10 11 12 14 16 19 22 23 23 23 25 28 29 29 31 33 35 37 36 35 35 32 30 24 3 306 263 252 247 245 245 244 243 244 243 242 241 242 242 242 244 245 246 247 249 250 251 252 252 253 253 253 254 254 254 254 253 253 253 253 252 252 254 256 256 255 255 255 255 255 255 254 254 255 255 255 255 256
4 2 3 2 3 4 5 5 6 8 9 10 11 13 17 19 21 23 23 22 23 23 24 25 26 27 29 30 31 32 31 27 20 7 350 321 285 267 258 255 252 251 251 250 249 249 248 247 247 248 248 248 248 249 250 251 252 252 252 252 252 252 252 253 252 250 249 250 251 251 252 253 256 257 256 254 253 252 252 253 253 251 251 251 253 254 256
358 359 359 358 359 1 3 3 4 5 7 8 9 11 13 15 18 22 23 22 21 20 21 21 20 19 18 18 19 21 22 22 19 11 359 337 309 291 276 266 261 257 255 253 252 252 253 253 253 252 252 253 252 252 252 252 252 252 251 250 250 249 250 251 251 248 248 250 250 251 251 252 253 253 252 249 247 247 249 250 249 248 249 250 252 254 256
358 358 357 356 358 -0 1 1 2 3 5 6 8 9 9 11 14 18 20 20 19 20 20 19 17 14 11 10 9 8 6 5 3 1 356 347 331 313 297 283 273 266 260 256 254 252 252 253 254 254 255 255 255 255 255 255 254 253 252 251 251 249 248 248 249 249 249 249 250 250 251 251 249 248 245 242 242 245 249 251 252 253 254 255 256 257 257
358 357 356 355 357 358 359 359 359 360 1 3 4 5 6 7 10 12 13 15 16 16 16 15 14 12 9 5 3 1 -0 356 351 347 342 335 327 319 312 305 295 285 277 271 266 262 258 256 255 255 255 256 255 255 255 256 255 255 254 254 253 252 250 249 249 249 249 248 249 250 250 250 249 247 245 244 246 250 254 256 259 259 260 260 260 259 259
356 356 355 354 354 356 356 357 356 356 357 359 1 2 2 4 5 6 7 10 12 13 11 9 9 8 6 3 -0 358 356 353 347 341 336 330 325 320 316 314 310 304 298 291 284 278 272 267 263 261 260 258 258 256 255 255 256 256 255 254 254 254 253 252 251 250 250 250 249 250 250 250 249 249 249 249 251 254 256 258 260 260 261 261 261 261 260
350 352 352 351 352 353 354 353 352 352 353 354 356 359 360 359 360 -0 1 3 6 7 7 5 5 4 3 3 1 358 354 351 346 339 333 330 328 324 319 317 313 309 305 302 298 294 289 284 278 274 271 267 265 264 262 261 260 258 257 255 255 254 254 253 253 252 251 251 251 250 250 250 250 250 250 252 254 255 257 258 259 260 260 261 261 262 262
343 346 347 346 347 350 352 351 350 349 349 350 352 354 355 355 354 354 356 357 359 360 1 1 -0 360 0 1 359 356 352 349 346 340 335 333 333 330 324 319 314 311 308 305 303 300 296 294 290 286 283 280 275 272 270 269 267 264 261 259 257 256 254 254 253 253 253 253 252 252 252 251 252 252 252 253 255 256 258 259 259 260 260 261 262 262 263
335 338 339 340 342 345 347 348 347 346 346 347 348 349 350 351 351 351 351 352 353 353 355 356 355 354 355 355 354 354 352 349 345 341 336 334 334 333 330 326 321 317 313 309 306 303 300 298 296 292 289 286 282 278 275 272 270 268 266 264 261 259 258 256 257 257 256 255 254 254 254 254 254 254 255 256 257 258 259 260 261 261 262 263 263 264 265
325 330 331 334 337 340 341 343 343 343 343 344 344 345 346 347 347 347 346 346 347 347 349 351 351 350 350 350 350 350 349 347 344 341 338 335 334 334 334 332 329 325 319 313 309 305 302 299 296 293 290 287 284 281 277 275 272 269 268 266 264 263 262 260 259 259 258 258 257 256 256 256 256 256 257 257 258 258 259 260 260 261 262 263 263 265 266
316 321 325 328 331 334 336 337 338 340 341 341 341 342 343 342 343 343 343 341 342 343 345 346 346 345 345 346 347 347 347 346 343 339 336 334 334 335 334 331 329 327 323 319 314 308 304 300 296 293 290 287 285 282 278 275 273 271 270 269 267 266 264 262 260 260 261 262 261 260 258 258 258 257 256 256 256 256 256 257 257 258 258 259 259 260 261
310 314 317 323 326 329 331 333 333 336 337 337 336 337 339 339 338 339 339 338 338 339 340 341 340 340 341 343 344 345 345 345 342 338 335 333 333 333 332 330 329 327 326 323 319 313 308 303 299 295 292 288 286 283 280 276 274 272 271 269 268 267 266 264 263 264 264 264 264 262 259 258 257 255 255 254 254 254 254 255 255 256 257 258 258 258 259
303 307 311 317 321 324 328 329 330 332 334 334 333 334 335 336 336 335 335 335 336 336 336 336 336 336 338 340 342 343 343 342 341 339 335 332 331 331 330 329 328 328 327 325 320 316 311 307 303 299 295 291 288 285 282 280 278 276 273 270 267 266 265 264 263 263 262 261 261 260 259 259 258 258 258 257 257 257 257 257 257 257 258 258 259 260 261
299 303 308 313 317 322 326 327 327 328 331 331 330 331 332 333 334 333 333 333 333 333 333 333 333 334 335 336 339 340 340 339 340 339 334 331 330 329 329 329 328 328 326 324 320 315 311 308 306 302 298 294 290 287 285 282 281 280 277 274 270 267 265 263 261 260 260 259 258 258 258 259 259 260 260 259 259 259 259 259 259 259 260 260 261 262 263
298 301 305 309 315 320 324 325 324 325 326 327 328 329 330 330 331 331 330 330 330 330 330 330 331 332 332 333 336 338 337 336 337 337 334 331 329 329 329 328 328 328 327 324 320 317 313 309 306 304 302 298 294 290 287 284 283 282 279 276 274 271 268 266 263 261 260 260 259 259 258 258 258 258 258 258 258 258 259 259 260 260 261 262 263 263 264
295 298 302 307 312 318 321 322 321 321 323 325 326 327 327 327 328 328 327 327 328 329 328 328 329 330 330 330 332 334 334 334 335 335 333 331 328 327 328 328 327 329 328 325 322 319 315 311 306 303 301 300 297 293 290 287 285 283 280 278 277 275 273 271 268 266 265 264 263 262 261 259 258 258 257 257 258 258 259 260 261 262 263 263 264 265 266
291 295 300 305 310 314 317 318 318 319 321 323 324 325 325 325 325 325 325 326 326 327 327 326 327 328 328 328 330 332 331 332 333 332 330 329 326 325 326 327 328 329 329 327 325 322 318 314 309 303 301 299 295 293 292 290 287 284 282 280 279 278 277 275 273 270 268 266 265 264 263 261 259 258 257 258 258 259 260 262 263 264 265 266 267 269 271
289 293 298 303 307 310 313 314 315 317 320 321 322 322 322 323 323 323 324 325 325 325 326 325 326 326 326 327 328 329 329 330 331 330 328 327 325 324 324 325 326 328 329 329 327 324 321 318 313 307 303 300 295 291 291 290 289 289 288 286 283 281 279 277 275 273 270 268 266 265 263 262 261 260 260 260 261 262 264 265 266 268 269 270 273 275 277
289 292 297 301 304 307 309 311 314 317 319 320 321 321 321 321 321 322 323 324 324 324 324 324 324 325 325 325 327 327 327 328 329 328 326 324 322 321 321 322 323 326 327 328 327 325 322 320 315 311 308 303 297 293 291 290 290 292 293 292 288 284 281 278 276 275 272 270 269 268 267 266 264 264 264 265 266 267 268 269 269 270 271 274 276 279 281
288 291 295 299 302 304 306 310 314 317 318 318 319 321 321 321 321 321 321 322 323 323 323 323 323 324 323 324 325 325 325 327 328 327 325 323 320 318 319 319 320 322 324 326 326 326 323 319 316 313 310 305 299 295 292 291 291 292 292 293 291 288 285 282 280 278 276 274 272 271 270 270 269 269 269 269 269 270 270 270 271 272 274 277 279 282 285
286 289 293 297 300 303 307 311 315 316 317 318 320 321 321 320 320 321 321 322 323 323 323 322 323 323 323 323 324 324 324 325 326 326 326 323 320 319 318 317 318 319 321 323 325 324 321 318 315 313 310 304 299 295 293 292 292 291 291 291 291 289 287 285 283 280 279 277 276 275 274 273 273 273 272 272 273 273 272 272 272 274 276 279 282 284 286
284 288 292 297 301 305 309 313 315 315 316 318 320 321 321 321 321 321 321 322 323 323 322 322 322 322 321 322 323 324 323 323 324 325 326 324 322 320 319 317 316 316 318 320 322 322 320 317 314 311 309 304 299 296 295 294 293 292 291 290 289 287 286 286 284 283 282 280 279 277 276 276 276 275 275 275 275 275 274 274 274 276 278 281 282 284 283
284 289 294 299 303 307 310 312 313 314 315 318 320 322 322 322 322 322 321 322 323 322 322 321 321 321 320 320 321 322 322 322 323 324 325 324 322 321 319 318 316 315 317 319 321 321 320 317 313 310 307 302 299 298 297 295 293 292 291 290 289 288 288 286 286 285 284 282 280 279 279 278 278 277 276 276 276 275 274 274 275 277 279 281 281 280 277
285 291 296 300 303 307 309 311 312 313 315 318 321 323 324 323 322 321 321 322 322 322 321 320 319 319 318 318 318 319 320 321 322 323 323 322 321 320 320 319 318 317 317 318 320 321 320 316 311 307 304 301 300 299 297 294 292 291 290 290 290 290 289 288 287 286 285 284 283 283 283 281 279 277 277 276 275 274 273 274 275 277 279 279 278 275 269
287 292 296 300 303 306 308 309 310 312 314 318 322 324 325 324 322 321 321 321 321 321 320 319 318 317 317 316 316 317 318 319 320 322 322 322 321 321 321 320 319 318 319 319 320 320 320 315 309 305 302 301 300 299 297 295 292 290 290 289 290 290 290 289 288 287 286 286 286 286 286 284 281 278 276 275 274 273 273 273 275 276 277 276 273 267 261
287 292 295 298 302 305 306 307 309 311 314 318 322 325 325 323 321 320 320 321 321 320 319 318 317 316 315 314 314 315 317 318 320 323 323 322 321 321 320 319 319 319 319 319 319 319 318 313 308 304 302 300 298 297 296 294 292 289 287 287 287 287 288 287 287 286 286 286 287 286 285 284 281 279 277 275 273 272 271 271 273 274 274 271 265 259 254
287 291 295 298 301 303 304 305 308 311 313 317 322 324 323 321 320 320 320 321 321 320 319 318 316 315 314 313 313 314 316 318 320 322 322 321 320 319 319 319 319 318 318 317 317 317 315 310 305 301 299 296 295 294 293 291 289 287 286 285 285 285 286 285 285 285 285 285 285 285 283 282 280 279 277 275 272 269 268 268 270 271 270 266 259 252 249
288 291 294 296 299 301 302 303 306 309 312 315 320 322 321 319 319 319 321 321 321 320 318 317 315 313 312 312 312 312 314 316 318 320 320 319 319 319 319 320 320 320 318 318 318 317 314 308 302 298 295 293 291 290 289 288 287 286 285 284 283 283 283 284 284 284 283 282 283 283 282 281 279 278 277 274 270 266 264 265 267 268 267 263 256 250 248
288 291 293 294 296 298 299 301 305 308 311 314 318 320 320 319 318 319 321 321 320 319 318 315 313 311 310 310 310 311 313 315 318 320 320 319 319 320 321 321 321 320 319 318 317 316 312 306 300 296 294 292 291 289 288 287 287 286 285 284 283 282 281 282 283 282 280 279 280 281 280 279 277 276 275 272 268 264 262 262 264 266 265 262 255 251 248
286 289 290 291 294 296 298 301 305 308 310 314 317 318 318 319 319 320 320 320 319 318 318 316 313 312 310 310 310 312 314 316 318 320 319 318 319 320 321 321 320 319 318 316 315 314 310 304 298 295 294 292 291 290 288 287 287 287 286 284 283 282 282 282 281 280 278 277 278 279 279 277 276 274 273 270 266 262 261 261 261 262 262 260 255 251 248
286 288 289 291 293 297 300 303 306 307 310 313 315 316 318 320 321 320 318 317 317 317 317 316 314 312 311 311 311 312 313 314 316 318 318 317 318 319 321 320 319 317 315 314 313 311 306 299 294 293 292 292 291 289 287 285 285 285 284 283 282 281 281 281 281 280 278 276 276 278 278 277 275 273 271 269 266 262 260 259 259 258 258 257 254 250 248
286 288 289 290 293 296 301 303 305 307 310 312 314 315 317 320 320 318 315 315 315 316 316 314 312 310 310 309 309 309 310 312 314 317 317 317 317 318 319 318 317 315 314 313 312 309 304 299 295 292 291 292 291 290 288 286 285 284 282 280 279 278 278 278 280 280 278 276 275 276 277 278 277 275 272 269 265 261 258 256 255 253 253 252 251 248 247
286 287 288 289 291 296 300 303 305 307 309 311 313 315 317 318 318 316 313 312 313 313 311 309 307 305 305 306 306 307 310 313 316 318 317 316 316 316 317 317 316 314 313 312 310 307 304 303 300 296 293 292 292 291 290 289 288 285 282 279 277 276 274 274 276 277 277 277 275 274 274 276 277 277 273 268 264 260 256 253 251 250 249 248 247 245 243
284 285 286 288 290 294 299 302 304 306 308 310 312 314 315 317 318 317 313 312 311 310 308 306 305 304 306 308 310 312 314 316 317 317 315 314 314 316 317 318 316 313 312 310 308 306 304 304 302 298 295 293 292 291 291 290 289 287 284 280 278 275 273 272 273 274 275 275 274 273 272 273 274 273 271 267 263 259 256 254 251 248 246 245 244 242 240
282 283 284 286 289 293 297 301 303 305 307 309 311 313 314 316 317 315 313 312 311 310 309 309 309 310 312 313 314 314 315 315 315 313 313 313 315 317 318 318 315 311 309 307 305 303 302 301 300 298 295 293 291 291 291 290 288 285 283 281 278 276 274 273 272 272 274 275 274 273 272 272 272 271 268 265 261 258 256 255 252 248 244 242 242 240 239
Height
5641 5640 5639 5638 5637 5635 5634 5633 5631 5629 5626 5624 5622 5620 5617 5615 5612 5610 5608 5606 5604 5603 5602 5601 5600 5600 5600 5602 5604 5606 5609 5612 5614 5617 5619 5621 5624 5628 5631 5634 5637 5640 5642 5644 5647 5649 5651 5653 5655 5656 5657 5659 5661 5663 5665 5667 5668 5670 5671 5673 5674 5676 5678 5679 5681 5683 5683 5685 5687 5688 5689 5691 5692 5694 5695 5697 5699 5700 5702 5704 5704 5705 5706 5708 5709 5710 5710
5640 5638 5637 5636 5635 5633 5632 5630 5628 5626 5624 5622 5619 5617 5614 5611 5609 5606 5604 5602 5600 5598 5597 5596 5595 5595 5595 5596 5598 5600 5603 5606 5609 5612 5614 5616 5620 5623 5627 5630 5633 5636 5639 5641 5643 5645 5648 5650 5651 5653 5654 5656 5658 5660 5661 5663 5665 5666 5668 5669 5671 5672 5674 5676 5678 5679 5681 5682 5683 5684 5685 5687 5688 5690 5691 5693 5695 5697 5698 5700 5701 5702 5703 5704 5706 5706 5706
5638 5637 5636 5634 5633 5631 5630 5628 5626 5624 5622 5619 5616 5614 5611 5608 5605 5603 5600 5597 5595 5594 5593 5591 5591 5590 5591 5592 5594 5596 5598 5601 5604 5607 5609 5612 5616 5620 5623 5627 5630 5633 5635 5637 5639 5642 5644 5646 5648 5650 5651 5653 5655 5657 5658 5660 5661 5663 5664 5666 5668 5669 5670 5673 5674 5675 5677 5678 5679 5680 5682 5683 5685 5687 5688 5690 5691 5693 5695 5697 5698 5699 5700 5701 5703 5702 5702
5636 5635 5634 5633 5631 5630 5628 5626 5624 5622 5619 5617 5614 5611 5608 5605 5603 5600 5596 5593 5590 5588 5587 5586 5586 5586 5587 5588 5590 5592 5595 5597 5600 5603 5606 5609 5613 5616 5620 5624 5627 5629 5632 5634 5636 5638 5641 5643 5645 5646 5648 5650 5652 5653 5655 5656 5658 5659 5661 5662 5664 5665 5667 5669 5670 5671 5672 5673 5674 5676 5679 5680 5682 5683 5685 5686 5687 5689 5691 5693 5694 5695 5696 5697 5698 5699 5699
5635 5634 5633 5632 5630 5629 5627 5625 5623 5620 5618 5615 5612 5609 5606 5603 5600 5596 5593 5589 5585 5582 5581 5580 5581 5582 5583 5585 5587 5589 5591 5594 5596 5600 5603 5606 5609 5613 5617 5621 5623 5626 5628 5631 5633 5635 5637 5639 5641 5643 5645 5647 5649 5650 5652 5653 5655 5656 5657 5659 5661 5662 5663 5665 5666 5668 5669 5669 5670 5673 5675 5676 5677 5679 5681 5682 5684 5686 5687 5689 5690 5691 5692 5693 5694 5695 5696
5634 5633 5632 5631 5629 5628 5626 5624 5622 5619 5617 5614 5611 5608 5605 5601 5597 5593 5589 5585 5581 5578 5577 5577 5578 5580 5581 5582 5584 5586 5588 5591 5594 5597 5600 5603 5607 5610 5614 5618 5621 5623 5625 5628 5630 5632 5634 5636 5638 5640 5642 5644 5646 5647 5649 5650 5652 5653 5655 5656 5658 5659 5660 5662 5663 5664 5665 5666 5667 5669 5671 5672 5673 5675 5677 5678 5680 5682 5683 5685 5686 5687 5689 5689 5690 5691 5693
5633 5632 5631 5630 5629 5627 5625 5623 5621 5618 5616 5613 5610 5607 5603 5599 5595 5591 5587 5582 5578 5576 5575 5576 5578 5578 5579 5581 5582 5584 5587 5590 5592 5595 5598 5601 5604 5608 5611 5615 5618 5620 5622 5625 5627 5629 5631 5633 5635 5637 5639 5641 5643 5644 5646 5647 5649 5650 5652 5653 5655 5656 5657 5658 5659 5660 5661 5662 5663 5665 5666 5668 5669 5670 5672 5674 5676 5678 5679 5681 5682 5683 5684 5685 5686 5688 5690
5632 5631 5630 5629 5628 5626 5624 5622 5620 5618 5615 5612 5609 5606 5602 5599 5595 5590 5586 5581 5577 5576 5576 5577 5578 5578 5578 5580 5582 5584 5587 5589 5592 5594 5597 5599 5602 5606 5609 5612 5615 5617 5619 5622 5624 5626 5628 5630 5632 5634 5636 5638 5639 5641 5642 5644 5646 5647 5649 5650 5651 5653 5654 5655 5656 5657 5658 5659 5660 5661 5662 5663 5665 5666 5668 5669 5671 5673 5675 5676 5678 5679 5681 5682 5683 5684 5686
5631 5630 5629 5628 5627 5626 5624 5622 5620 5617 5615 5612 5609 5605 5602 5599 5595 5590 5585 5580 5578 5577 5577 5578 5579 5579 5579 5581 5583 5585 5587 5589 5591 5594 5596 5598 5601 5604 5607 5609 5612 5615 5617 5619 5621 5623 5625 5627 5629 5631 5633 5634 5636 5638 5639 5641 5642 5644 5645 5647 5648 5649 5651 5652 5653 5654 5654 5656 5656 5657 5658 5659 5661 5662 5664 5665 5667 5668 5670 5672 5673 5675 5677 5678 5679 5680 5682
5631 5630 5629 5628 5626 5625 5623 5621 5619 5617 5615 5612 5609 5606 5603 5599 5595 5591 5587 5582 5580 5579 5579 5580 5581 5581 5582 5583 5584 5586 5587 5589 5591 5593 5595 5597 5600 5602 5605 5607 5609 5612 5614 5616 5619 5621 5623 5625 5626 5628 5630 5631 5633 5635 5636 5637 5639 5640 5642 5644 5645 5646 5648 5649 5650 5650 5651 5653 5653 5654 5655 5656 5657 5659 5661 5661 5662 5664 5665 5667 5669 5670 5672 5673 5674 5676 5677
5630 5629 5628 5627 5626 5624 5622 5621 5619 5617 5614 5612 5609 5606 5603 5599 5596 5592 5589 5586 5583 5581 5581 5582 5583 5583 5584 5584 5585 5586 5587 5589 5591 5593 5594 5597 5599 5601 5603 5605 5607 5609 5612 5614 5616 5618 5620 5622 5624 5625 5627 5628 5630 5632 5633 5634 5635 5636 5638 5640 5641 5643 5644 5645 5646 5647 5648 5649 5650 5651 5651 5652 5654 5657 5658 5657 5658 5660 5661 5663 5664 5665 5667 5668 5670 5672 5673
5630 5629 5628 5627 5626 5624 5622 5620 5619 5617 5614 5612 5610 5607 5604 5601 5597 5594 5591 5588 5586 5584 5584 5584 5584 5585 5586 5586 5587 5587 5587 5589 5590 5592 5594 5596 5598 5600 5601 5603 5605 5607 5609 5611 5613 5615 5617 5619 5620 5622 5624 5625 5627 5628 5629 5631 5632 5633 5634 5636 5637 5639 5640 5641 5642 5643 5644 5645 5647 5647 5647 5649 5651 5653 5653 5654 5655 5656 5657 5658 5659 5660 5662 5663 5665 5667 5668
5630 5629 5628 5627 5625 5624 5622 5620 5619 5617 5615 5613 5610 5607 5605 5602 5599 5596 5593 5591 5589 5587 5586 5586 5586 5586 5587 5587 5588 5588 5589 5590 5591 5592 5594 5595 5597 5598 5600 5601 5603 5605 5607 5609 5611 5612 5614 5616 5617 5619 5620 5622 5623 5625 5626 5627 5629 5630 5631 5632 5633 5634 5635 5636 5638 5639 5640 5641 5642 5643 5644 5647 5648 5648 5649 5650 5651 5652 5653 5654 5655 5656 5658 5659 5660 5662 5663
5629 5629 5628 5626 5625 5624 5622 5620 5619 5617 5615 5613 5611 5608 5606 5603 5601 5598 5595 5593 5591 5590 5588 5587 5587 5587 5587 5588 5589 5589 5590 5591 5591 5592 5594 5595 5596 5597 5599 5600 5601 5603 5605 5606 5608 5610 5611 5613 5615 5616 5617 5619 5620 5621 5622 5624 5625 5626 5628 5629 5629 5630 5631 5632 5634 5635 5636 5637 5638 5639 5641 5642 5643 5644 5645 5646 5647 5648 5649 5650 5651 5652 5654 5655 5656 5657 5658
5629 5628 5627 5626 5625 5623 5622 5620 5619 5617 5615 5613 5611 5609 5607 5604 5602 5600 5597 5596 5594 5592 5591 5590 5589 5588 5588 5588 5589 5589 5590 5591 5592 5592 5594 5594 5595 5597 5598 5599 5600 5601 5603 5604 5606 5607 5609 5610 5611 5613 5614 5615 5616 5617 5619 5620 5621 5622 5623 5624 5625 5626 5628 5629 5630 5631 5632 5633 5634 5635 5636 5637 5639 5640 5641 5641 5642 5643 5644 5645 5646 5648 5649 5650 5651 5652 5653
5629 5628 5627 5626 5625 5624 5622 5621 5619 5617 5615 5613 5611 5610 5607 5605 5603 5601 5599 5598 5596 5594 5593 5592 5591 5590 5589 5589 5589 5589 5590 5590 5591 5592 5593 5594 5594 5595 5597 5598 5599 5600 5601 5602 5603 5605 5606 5607 5609 5610 5611 5612 5612 5613 5615 5616 5617 5618 5619 5620 5621 5622 5623 5625 5625 5626 5628 5629 5630 5631 5631 5632 5634 5636 5636 5637 5638 5638 5639 5641 5642 5643 5644 5645 5646 5647 5648
5628 5628 5627 5626 5625 5623 5622 5620 5619 5617 5615 5613 5612 5610 5608 5606 5604 5602 5601 5599 5597 5596 5595 5594 5593 5592 5591 5590 5590 5590 5590 5590 5591 5591 5592 5593 5593 5594 5595 5596 5597 5598 5599 5600 5601 5602 5603 5604 5606 5606 5607 5608 5609 5610 5611 5611 5612 5614 5615 5616 5616 5617 5618 5620 5621 5622 5623 5625 5626 5626 5626 5627 5629 5630 5631 5633 5633 5634 5635 5636 5637 5639 5639 5640 5641 5642 5643
5628 5627 5626 5625 5624 5623 5622 5620 5619 5617 5615 5613 5612 5611 5609 5607 5605 5604 5602 5600 5599 5597 5596 5595 5594 5594 5593 5592 5591 5591 5590 5590 5590 5591 5591 5591 5592 5592 5593 5594 5594 5595 5596 5597 5598 5599 5600 5601 5602 5603 5603 5604 5605 5606 5606 5607 5608 5609 5610 5611 5611 5612 5613 5615 5616 5618 5619 5619 5620 5620 5621 5622 5624 5625 5626 5628 5628 5629 5630 5631 5633 5634 5634 5634 5635 5636 5637
5627 5627 5626 5625 5624 5623 5622 5620 5619 5617 5615 5614 5612 5611 5609 5608 5606 5604 5602 5601 5599 5598 5597 5596 5595 5594 5594 5593 5592 5592 5591 5591 5591 5590 5590 5591 5591 5591 5591 5591 5592 5592 5593 5594 5594 5595 5596 5597 5598 5598 5599 5600 5601 5601 5602 5603 5604 5604 5605 5606 5606 5607 5608 5609 5611 5613 5613 5614 5615 5615 5616 5617 5619 5620 5622 5623 5623 5623 5623 5625 5627 5628 5628 5629 5630 5631 5631
5627 5626 5625 5624 5623 5622 5621 5620 5619 5617 5615 5614 5612 5611 5609 5608 5607 5605 5603 5602 5601 5599 5598 5597 5596 5595 5594 5593 5593 5592 5592 5591 5591 5591 5590 5590 5590 5590 5590 5590 5590 5590 5590 5591 5591 5592 5592 5593 5593 5594 5594 5595 5596 5597 5597 5598 5598 5599 5600 5601 5602 5603 5604 5605 5605 5607 5608 5609 5610 5610 5611 5613 5614 5615 5616 5617 5617 5617 5619 5620 5621 5622 5623 5624 5625 5625 5626
5626 5625 5625 5624 5623 5622 5621 5619 5618 5617 5615 5614 5612 5611 5609 5608 5606 5605 5604 5603 5601 5600 5598 5597 5596 5595 5594 5593 5593 5592 5592 5591 5591 5590 5590 5590 5589 5589 5589 5589 5589 5589 5589 5589 5589 5589 5589 5589 5590 5590 5590 5591 5591 5592 5592 5592 5593 5593 5595 5595 5596 5598 5600 5600 5600 5601 5603 5604 5604 5604 5605 5607 5608 5609 5611 5611 5611 5612 5613 5614 5615 5615 5617 5618 5619 5620 5621
5625 5625 5624 5623 5622 5621 5620 5619 5618 5616 5615 5614 5612 5611 5609 5608 5606 5605 5604 5603 5601 5600 5598 5597 5596 5595 5594 5593 5593 5592 5591 5591 5590 5590 5589 5589 5588 5588 5588 5587 5587 5587 5587 5587 5587 5587 5587 5587 5587 5587 5587 5587 5587 5587 5587 5587 5587 5588 5589 5590 5590 5591 5593 5594 5594 5595 5597 5597 5598 5599 5600 5601 5602 5603 5605 5605 5605 5606 5607 5607 5608 5609 5610 5611 5612 5613 5614
5625 5624 5623 5623 5622 5620 5619 5618 5617 5616 5615 5613 5612 5611 5609 5608 5606 5605 5604 5603 5601 5600 5599 5598 5596 5595 5594 5593 5592 5592 5591 5590 5590 5589 5588 5588 5587 5587 5586 5586 5586 5585 5585 5585 5585 5585 5584 5584 5584 5584 5584 5584 5584 5583 5584 5583 5583 5583 5584 5584 5585 5585 5586 5588 5589 5589 5590 5591 5592 5593 5594 5595 5596 5597 5598 5598 5599 5599 5600 5601 5601 5602 5603 5603 5604 5605 5606
5624 5623 5623 5622 5621 5620 5619 5617 5616 5615 5614 5612 5611 5610 5609 5607 5606 5605 5604 5603 5601 5600 5599 5598 5596 5595 5594 5593 5592 5591 5590 5589 5589 5588 5587 5587 5586 5586 5585 5585 5584 5584 5584 5583 5583 5583 5582 5582 5581 5581 5581 5581 5580 5580 5580 5580 5580 5580 5579 5580 5580 5580 5581 5582 5583 5583 5584 5585 5586 5587 5588 5589 5590 5591 5592 5592 5593 5593 5594 5594 5595 5595 5596 5597 5597 5598 5599
5623 5623 5622 5621 5620 5619 5618 5617 5615 5614 5613 5611 5610 5609 5608 5607 5606 5605 5603 5602 5601 5599 5598 5597 5595 5594 5593 5592 5591 5590 5589 5588 5588 5587 5586 5586 5585 5584 5584 5583 5583 5582 5582 5581 5581 5581 5580 5580 5579 5579 5578 5578 5578 5577 5577 5577 5577 5576 5576 5576 5576 5576 5577 5578 5578 5578 5579 5580 5581 5581 5582 5583 5584 5585 5586 5586 5587 5587 5588 5588 5589 5589 5590 5590 5591 5592 5592
5622 5622 5621 5620 5619 5618 5617 5616 5615 5614 5612 5611 5610 5609 5607 5606 5605 5604 5602 5601 5600 5599 5597 5596 5595 5593 5592 5591 5590 5589 5588 5587 5587 5586 5585 5584 5584 5583 5582 5582 5581 5581 5580 5580 5579 5579 5578 5578 5577 5577 5576 5576 5575 5575 5575 5574 5574 5574 5573 5574 5573 5573 5573 5574 5574 5575 5575 5575 5576 5577 5577 5578 5579 5579 5580 5581 5581 5582 5582 5582 5583 5583 5584 5584 5585 5585 5586
5621 5621 5620 5619 5618 5617 5616 5615 5614 5613 5612 5610 5609 5608 5606 5605 5604 5603 5601 5600 5599 5598 5597 5595 5594 5593 5591 5590 5589 5588 5587 5586 5585 5585 5584 5583 5582 5581 5581 5580 5580 5579 5579 5578 5577 5577 5576 5576 5575 5574 5574 5573 5573 5573 5572 5572 5572 5571 5571 5571 5571 5571 5571 5571 5571 5571 5571 5571 5572 5573 5573 5573 5574 5575 5575 5576 5576 5577 5577 5577 5578 5578 5578 5579 5579 5580 5580
5620 5619 5619 5618 5617 5616 5615 5614 5613 5612 5611 5609 5608 5607 5605 5604 5603 5602 5600 5599 5598 5596 5595 5594 5593 5592 5591 5589 5588 5587 5586 5585 5584 5583 5582 5582 5581 5580 5579 5579 5578 5578 5577 5576 5576 5575 5574 5574 5573 5572 5572 5571 5571 5570 5570 5570 5569 5569 5569 5569 5569 5569 5569 5569 5569 5569 5568 5568 5569 5569 5569 5570 5570 5570 5571 5571 5572 5572 5572 5573 5573 5573 5574 5574 5574 5575 5575
5618 5618 5618 5617 5616 5615 5614 5613 5612 5610 5609 5608 5607 5606 5605 5603 5602 5600 5599 5598 5597 5595 5594 5593 5592 5590 5589 5588 5587 5586 5585 5584 5583 5582 5581 5580 5579 5578 5578 5577 5576 5576 5575 5574 5574 5573 5572 5572 5571 5570 5570 5569 5569 5568 5568 5567 5567 5567 5567 5566 5566 5566 5566 5566 5566 5566 5566 5566 5566 5566 5566 5566 5566 5567 5567 5567 5568 5568 5568 5568 5569 5569 5569 5570 5570 5570 5570
5617 5616 5616 5615 5615 5614 5613 5612 5610 5609 5608 5607 5605 5604 5603 5602 5601 5599 5598 5597 5595 5594 5593 5591 5590 5589 5588 5587 5586 5584 5583 5582 5581 5581 5580 5579 5578 5577 5576 5576 5575 5574 5573 5573 5572 5571 5570 5569 5569 5568 5567 5567 5566 5566 5565 5565 5565 5564 5564 5564 5564 5564 5563 5564 5563 5563 5563 5563 5563 5563 5563 5563 5563 5563 5563 5564 5564 5564 5564 5565 5565 5565 5565 5566 5566 5566 5566
5615 5614 5614 5614 5613 5612 5611 5610 5609 5607 5606 5605 5604 5602 5601 5600 5599 5598 5596 5595 5594 5592 5591 5590 5588 5587 5586 5585 5584 5583 5582 5581 5580 5579 5578 5577 5576 5576 5575 5574 5573 5573 5572 5571 5570 5569 5568 5568 5567 5566 5565 5565 5564 5563 5563 5562 5562 5562 5562 5561 5561 5561 5561 5561 5560 5560 5560 5560 5560 5560 5560 5560 5560 5560 5560 5560 5560 5560 5561 5561 5561 5561 5561 5562 5562 5562 5561
5613 5612 5612 5612 5611 5611 5610 5609 5607 5606 5605 5604 5602 5601 5599 5598 5597 5596 5595 5593 5592 5591 5589 5588 5587 5585 5584 5583 5582 5581 5580 5579 5578 5577 5576 5575 5575 5574 5573 5572 5572 5571 5570 5569 5568 5567 5567 5566 5565 5564 5563 5563 5562 5561 5560 5560 5559 5559 5559 5558 5558 5558 5558 5558 5558 5557 5557 5557 5557 5556 5557 5557 5557 5557 5557 5556 5556 5557 5557 5557 5557 5557 5557 5557 5557 5557 5557
5611 5610 5610 5610 5609 5609 5608 5607 5606 5604 5603 5602 5601 5599 5598 5597 5595 5594 5593 5592 5590 5589 5587 5586 5585 5584 5582 5581 5580 5580 5578 5577 5576 5576 5575 5574 5573 5572 5571 5571 5570 5569 5568 5567 5566 5565 5565 5564 5563 5562 5561 5561 5560 5559 5558 5558 5557 5556 5556 5556 5555 5555 5555 5555 5555 5554 5554 5554 5554 5553 5553 5553 5553 5553 5553 5553 5553 5553 5553 5553 5553 5553 5553 5553 5553 5553 5552
5609 5609 5608 5608 5607 5607 5606 5605 5604 5603 5601 5600 5599 5598 5596 5595 5593 5592 5591 5590 5588 5587 5586 5584 5583 5582 5581 5580 5579 5578 5577 5576 5575 5574 5573 5572 5571 5570 5569 5569 5568 5567 5566 5565 5564 5563 5563 5562 5561 5560 5559 5559 5558 5557 5556 5555 5555 5554 5553 5553 5553 5552 5552 5552 5552 5551 5551 5551 5551 5550 5550 5550 5550 5550 5549 5549 5549 5549 5550 5550 5550 5549 5549 5549 5549 5548 5548
5607 5607 5606 5606 5605 5605 5604 5603 5602 5601 5600 5598 5597 5596 5595 5593 5592 5590 5589 5588 5586 5585 5584 5582 5581 5580 5579 5578 5577 5576 5575 5574 5573 5572 5571 5570 5569 5568 5568 5567 5566 5565 5564 5563 5562 5561 5560 5560 5559 5558 5557 5556 5555 5555 5554 5553 5552 5552 5551 5551 5550 5550 5550 5549 5549 5548 5548 5548 5548 5547 5547 5547 5547 5546 5546 5546 5546 5546 5546 5546 5546 5546 5545 5545 5544 5544 5544
5605 5604 5604 5604 5603 5602 5602 5601 5600 5599 5598 5597 5595 5594 5593 5591 5590 5588 5587 5586 5584 5583 5582 5580 5579 5578 5577 5576 5575 5574 5573 5572 5571 5570 5569 5568 5568 5567 5566 5565 5564 5563 5562 5561 5560 5559 5558 5557 5556 5555 5554 5554 5553 5552 5551 5550 5550 5549 5549 5548 5548 5547 5547 5546 5546 5545 5545 5545 5545 5544 5544 5544 5543 5543 5543 5543 5543 5543 5543 5543 5542 5542 5541 5541 5541 5540 5540
5602 5602 5602 5602 5601 5600 5600 5599 5598 5597 5596 5594 5593 5592 5590 5589 5588 5586 5585 5584 5582 5581 5580 5578 5577 5576 5575 5574 5573 5572 5571 5570 5569 5568 5568 5567 5566 5565 5564 5563 5562 5561 5560 5559 5558 5557 5556 5555 5554 5553 5552 5551 5550 5549 5548 5548 5547 5547 5546 5546 5545 5544 5544 5543 5543 5542 5542 5542 5541 5541 5541 5540 5540 5540 5540 5539 5539 5540 5539 5539 5539 5538 5538 5538 5537 5537 5536
5600 5600 5600 5599 5599 5598 5597 5597 5595 5594 5593 5592 5591 5589 5588 5587 5585 5584 5583 5581 5580 5579 5578 5576 5575 5574 5573 5572 5571 5570 5569 5568 5567 5566 5565 5565 5564 5563 5562 5561 5560 5559 5558 5557 5556 5555 5554 5552 5551 5550 5549 5548 5547 5546 5546 5545 5544 5544 5543 5543 5542 5542 5541 5541 5540 5540 5539 5538 5538 5537 5537 5537 5537 5536 5536 5536 5536 5536 5536 5536 5535 5535 5535 5534 5534 5533 5533
5598 5598 5597 5597 5596 5596 5595 5594 5593 5592 5591 5590 5588 5587 5586 5584 5583 5582 5580 5579 5578 5577 5575 5574 5573 5572 5571 5570 5569 5568 5567 5566 5565 5564 5563 5562 5561 5561 5560 5559 5558 5557 5556 5555 5554 5553 5551 5550 5548 5547 5546 5545 5544 5544 5543 5542 5541 5541 5540 5540 5539 5539 5539 5539 5538 5537 5536 5535 5535 5534 5534 5534 5533 5533 5533 5533 5533 5533 5532 5532 5532 5532 5531 5531 5530 5530 5530
5595 5595 5595 5595 5594 5593 5592 5591 5590 5589 5588 5587 5586 5585 5583 5582 5581 5579 5578 5577 5576 5574 5573 5572 5571 5570 5569 5568 5567 5566 5565 5564 5563 5562 5561 5560 5559 5558 5557 5557 5556 5555 5553 5552 5551 5550 5549 5547 5546 5544 5543 5542 5541 5541 5540 5539 5538 5538 5537 5537 5536 5536 5536 5536 5535 5534 5534 5533 5532 5531 5531 5531 5530 5530 5529 5529 5529 5529 5529 5529 5529 5528 5528 5528 5527 5527 5527
5593 5593 5592 5592 5591 5591 5590 5589 5588 5587 5586 5585 5584 5583 5581 5580 5578 5577 5576 5575 5574 5572 5571 5570 5569 5568 5567 5566 5565 5564 5563 5562 5561 5560 5559 5558 5557 5556 5555 5554 5553 5552 5551 5550 5549 5548 5546 5545 5543 5542 5540 5539 5538 5538 5537 5536 5536 5535 5534 5533 5533 5533 5533 5532 5532 5531 5530 5530 5529 5528 5528 5527 5527 5527 5526 5526 5526 5526 5526 5526 5526 5525 5525 5525 5524 5524 5524
5591 5590 5590 5589 5589 5588 5587 5586 5585 5584 5583 5582 5581 5580 5579 5578 5576 5575 5574 5573 5571 5570 5569 5568 5567 5566 5565 5564 5563 5562 5561 5560 5559 5558 5557 5556 5555 5554 5553 5552 5551 5549 5548 5547 5546 5545 5544 5542 5540 5539 5537 5536 5535 5534 5534 5533 5533 5532 5531 5531 5530 5530 5529 5529 5528 5528 5527 5526 5526 5525 5525 5524 5524 5524 5523 5523 5523 5523 5523 5523 5523 5522 5522 5522 5522 5522 5522
5588 5588 5587 5587 5586 5585 5585 5584 5583 5582 5581 5580 5579 5578 5577 5575 5574 5573 5572 5570 5569 5568 5567 5566 5565 5564 5563 5562 5561 5560 5559 5558 5557 5556 5555 5554 5553 5551 5550 5549 5548 5547 5546 5544 5543 5542 5540 5539 5537 5535 5534 5533 5532 5531 5531 5530 5530 5529 5528 5528 5527 5527 5526 5526 5525 5525 5524 5523 5523 5522 5521 5521 5521 5520 5520 5520 5520 5520 5520 5520 5520 5519 5519 5519 5519 5519 5520
5585 5585 5585 5584 5583 5583 5582 5581 5580 5579 5578 5577 5577 5576 5574 5573 5572 5570 5569 5568 5567 5566 5565 5564 5563 5562 5561 5560 5559 5558 5557 5556 5555 5554 5553 5552 5551 5549 5548 5547 5546 5545 5543 5542 5541 5539 5537 5536 5534 5532 5530 5529 5529 5528 5527 5527 5526 5526 5525 5525 5524 5523 5523 5522 5522 5521 5521 5520 5520 5519 5518 5518 5517 5517 5517 5517 5517 5517 5517 5517 5517 5517 5517 5517 5517 5517 5518
5583 5582 5582 5581 5580 5580 5579 5578 5578 5577 5576 5575 5574 5573 5572 5571 5569 5568 5567 5566 5565 5564 5563 5562 5561 5560 5559 5558 5557 5556 5555 5554 5553 5552 5551 5550 5549 5547 5546 5545 5544 5542 5541 5539 5538 5536 5534 5532 5530 5528 5527 5526 5525 5524 5523 5523 5523 5522 5522 5521 5521 5520 5520 5519 5519 5518 5518 5517 5517 5516 5515 5515 5515 5514 5514 5514 5514 5514 5514 5514 5514 5514 5514 5514 5514 5515 5515
5580 5579 5579 5578 5577 5577 5576 5575 5575 5574 5573 5572 5572 5571 5569 5568 5567 5565 5564 5563 5562 5561 5560 5560 5559 5558 5557 5556 5555 5554 5553 5551 5551 5550 5548 5547 5546 5545 5544 5542 5541 5539 5538 5536 5534 5533 5531 5528 5526 5524 5523 5522 5521 5520 5520 5519 5519 5519 5518 5518 5517 5517 5516 5516 5515 5515 5515 5514 5514 5513 5513 5512 5512 5512 5511 5511 5511 5511 5511 5511 5511 5512 5512 5512 5512 5513 5513
5577 5576 5575 5575 5574 5574 5573 5573 5572 5571 5570 5570 5569 5568 5567 5566 5564 5563 5561 5560 5559 5558 5558 5557 5556 5555 5554 5553 5552 5551 5550 5549 5548 5547 5546 5544 5543 5542 5541 5539 5537 5536 5534 5532 5531 5529 5527 5525 5523 5521 5519 5518 5518 5517 5516 5516 5515 5515 5515 5514 5514 5513 5513 5512 5512 5512 5511 5511 5511 5511 5510 5510 5509 5509 5509 5509 5509 5509 5509 5509 5509 5509 5509 5509 5510 5510 5511
5573 5573 5572 5571 5571 5571 5570 5570 5569 5568 5568 5567 5566 5565 5564 5563 5562 5560 5559 5558 5557 5556 5555 5554 5553 5553 5552 5551 5550 5549 5548 5546 5546 5545 5544 5542 5541 5539 5538 5536 5534 5532 5531 5529 5527 5525 5524 5522 5520 5518 5516 5515 5514 5514 5513 5512 5511 5511 5511 5511 5510 5510 5509 5509 5508 5508 5508 5508 5508 5508 5507 5507 5507 5507 5506 5506 5506 5506 5506 5506 5506 5507 5507 5507 5508 5508 5509
5570 5569 5569 5568 5568 5568 5568 5567 5566 5565 5565 5564 5563 5562 5562 5561 5560 5558 5556 5555 5554 5554 5553 5552 5551 5550 5550 5549 5548 5546 5545 5544 5544 5543 5541 5539 5538 5536 5534 5533 5531 5529 5527 5525 5524 5522 5520 5518 5517 5515 5513 5512 5511 5510 5509 5509 5508 5507 5507 5507 5506 5506 5506 5505 5505 5504 5505 5505 5505 5504 5504 5504 5504 5504 5504 5504 5503 5503 5503 5503 5503 5504 5504 5505 5505 5506 5506
5567 5566 5566 5565 5565 5565 5565 5564 5563 5562 5562 5561 5560 5560 5559 5558 5557 5556 5554 5553 5552 5552 5551 5550 5549 5548 5548 5547 5546 5544 5543 5542 5541 5539 5538 5536 5534 5532 5531 5529 5527 5525 5523 5522 5520 5518 5516 5514 5513 5511 5510 5508 5507 5507 5506 5505 5505 5504 5503 5503 5503 5502 5502 5502 5501 5501 5501 5501 5501 5501 5501 5501 5501 5501 5501 5501 5500 5500 5500 5500 5501 5501 5502 5502 5503 5503 5504
5563 5563 5562 5562 5562 5562 5562 5561 5560 5559 5559 5558 5557 5556 5556 5555 5554 5553 5552 5551 5550 5549 5548 5548 5547 5546 5545 5544 5543 5541 5540 5539 5537 5536 5534 5531 5530 5528 5527 5525 5523 5520 5518 5517 5515 5513 5511 5510 5509 5507 5506 5505 5504 5503 5502 5501 5501 5500 5500 5499 5499 5499 5498 5498 5498 5498 5497 5498 5498 5498 5498 5498 5498 5498 5498 5498 5497 5497 5497 5497 5498 5498 5499 5500 5500 5501 5502
5560 5560 5559 5559 5559 5559 5558 5558 5557 5556 5556 5555 5554 5553 5552 5551 5551 5550 5549 5548 5547 5546 5545 5545 5544 5543 5542 5541 5539 5538 5537 5535 5534 5532 5530 5528 5526 5525 5523 5521 5519 5516 5514 5512 5510 5508 5507 5506 5505 5504 5503 5501 5500 5499 5499 5498 5497 5497 5496 5496 5495 5495 5495 5495 5494 5494 5494 5494 5494 5494 5494 5494 5494 5494 5494 5494 5494 5494 5494 5494 5495 5496 5496 5497 5498 5498 5499